User: anonymous   Login
Location: Geremba
(10.4250°N, 67.2394°W)
Time: 18:37:55
(UTC+00:00)
Language:

CZ-4C R/B - Orbit

View from above orbital plane
View from above orbital plane
View from above satellite
View from above satellite

Ground track
Ground track

The orbit data is extracted from the following two-line orbital elements,

1 36416U 10009D   24205.18359789  .00002818  00000-0  74281-3 0  9997
2 36416  63.4007 127.2699 0638429 359.1066   0.8781 13.70920056719543
Epoch (UTC): 23 July 2024 04:24:22
Eccentricity: 0.0638429
inclination: 63.4007°
perigee height: 525 km
apogee height: 1467 km
right ascension of ascending node: 127.2699°
argument of perigee: 359.1066°
revolutions per day: 13.70920056
mean anomaly at epoch: 0.8781°
orbit number at epoch: 71954

The dashed part of the orbit path shows where the satellite is in the earth's shadow,  

DLR